Tracking 18630 objects as of 24-May-2017
HD Live streaming from Space Station
objects crossing your sky now

NOAA 4

Track NOAA 4 now!
10-day predictions
NOAA 4 is classified as:


NORAD ID: 7529
Int'l Code: 1974-089A
Perigee: 1,451.4 km
Apogee: 1,465.9 km
Inclination: 101.6 °
Period: 114.9 minutes
Semi major axis: 7829 km
RCS: 3.1879 m2 (large)
Launch date: November 15, 1974
Source: United States (US)
Launch site: AIR FORCE WESTERN TEST RANGE (AFWTR)
Your satellite tracking list
Your tracking list is empty





NASA's NSSDC Master Catalog

Two Line Element Set (TLE):
1  7529U 74089A   17143.96755257 -.00000050 +00000-0 -33632-4 0  9991
2  7529 101.6380 113.2774 0009283 067.9289 336.2389 12.53110189944767
Source of the keplerian elements: AFSPC